Weather History for Weyburn, SK

Change the Weather History Date:

Sunday, September 2, 2012

  Actual Average Record
Temperature  
Mean Temperature 66 °F -  
Max Temperature 78 °F - - ()
Min Temperature 49 °F - - ()
Growing Degree Days 16 (Base 50)    
Moisture  
Dew Point 40 °F    
Average Humidity 51    
Maximum Humidity 89    
Minimum Humidity 8    
Precipitation  
Precipitation 0.00 in - - ()
Sea Level Pressure  
Sea Level Pressure 29.80 in    
Wind  
Wind Speed 6 mph ()    
Max Wind Speed 17 mph    
Max Gust Speed 30 mph    
T = Trace of Precipitation, MM = Missing Value Source: Averaged Metar Reports

Daily Weather History Graph

Daily Weather History Graph

Search for Another Location

Airport:

Trip Planner

Search our weather history database for the weather conditions in past years. The results will help you decide how hot, cold, wet, or windy it might be!

Date:

Astronomy

Sep. 02, 2012 Rise Set
Actual Time 6:13 AM CST 7:35 PM CST
Civil Twilight 5:39 AM CST 8:08 PM CST
Nautical Twilight 4:59 AM CST 8:48 PM CST
Astronomical Twilight 4:15 AM CST 9:32 PM CST
Moon 8:02 PM CST (9/2) 8:43 AM CST (9/2)
Length of Visible Light 14h 28m
Length of Day
13h 22m
Waning Gibbous, 95% of the Moon is Illuminated
Sep 2
Waning Gibbous
Sep 8
Last Quarter
Sep 15
New
Sep 22
First Quarter
Sep 29
Full

Hourly Weather History & Observations

Time (CST) Temp. Dew Point Humidity Pressure Visibility Wind Dir Wind Speed Gust Speed Precip Events Conditions
12:00 AM 57 °F 51 °F 74% 29.75 in - WNW 3.5 mph - -  
12:00 AM 57.2 °F 50.9 °F 79% 29.75 in - WNW 3.5 mph - N/A   Unknown
1:00 AM 55.2 °F 50.4 °F 84% 29.75 in - North 2.3 mph - N/A   Unknown
2:00 AM 55.2 °F 49.8 °F 82% 29.74 in - South 1.2 mph - N/A   Unknown
3:00 AM 55.0 °F 51.3 °F 87% 29.75 in - NW 5.8 mph - N/A   Unknown
4:00 AM 55.0 °F 51.4 °F 88% 29.74 in - WSW 4.6 mph - N/A   Unknown
5:00 AM 55.0 °F 51.3 °F 87% 29.77 in - West 4.6 mph - N/A   Unknown
6:00 AM 55 °F 52 °F 85% 29.80 in - SW 4.6 mph - -  
6:00 AM 55.0 °F 51.8 °F 89% 29.80 in - SW 4.6 mph - N/A   Unknown
7:00 AM 53.2 °F 50.0 °F 89% 29.82 in - WNW 4.6 mph - N/A   Unknown
8:00 AM 55.2 °F 51.6 °F 88% 29.83 in - WNW 9.2 mph - N/A   Unknown
9:00 AM 59.9 °F 52.9 °F 78% 29.84 in - WNW 9.2 mph - N/A   Unknown
10:00 AM 64.9 °F 51.6 °F 62% 29.85 in - WNW 8.1 mph - N/A   Unknown
11:00 AM 72.0 °F 40.6 °F 32% 29.83 in - West 11.5 mph - N/A   Unknown
12:00 PM 76 °F 30 °F 10% 29.82 in - West 13.8 mph - -  
12:00 PM 75.9 °F 30.2 °F 19% 29.82 in - West 13.8 mph 24.2 mph N/A   Unknown
1:00 PM 75.9 °F 28.6 °F 17% 29.81 in - West 16.1 mph 26.5 mph N/A   Unknown
2:00 PM 77.0 °F 28.2 °F 17% 29.81 in - West 16.1 mph 27.6 mph N/A   Unknown
3:00 PM 76.8 °F 28.8 °F 17% 29.79 in - West 16.1 mph 25.3 mph N/A   Unknown
4:00 PM 77.2 °F 26.4 °F 15% 29.79 in - WSW 17.3 mph 29.9 mph N/A   Unknown
5:00 PM 77.4 °F 26.4 °F 15% 29.79 in - West 15.0 mph 25.3 mph N/A   Unknown
6:00 PM 76 °F 27 °F 8% 29.80 in - West 16.1 mph - -  
6:00 PM 75.9 °F 26.8 °F 16% 29.80 in - West 16.1 mph 25.3 mph N/A   Unknown
7:00 PM 72.3 °F 29.8 °F 21% 29.80 in - West 6.9 mph - N/A   Unknown
8:00 PM 66.4 °F 30.2 °F 26% 29.81 in - West 6.9 mph - N/A   Unknown
9:00 PM 61.3 °F 30.9 °F 32% 29.82 in - WSW 3.5 mph - N/A   Unknown
10:00 PM 53.8 °F 34.0 °F 47% 29.82 in - SSW 6.9 mph - N/A   Unknown
11:00 PM 49.5 °F 34.3 °F 56% 29.82 in - South 5.8 mph - N/A   Unknown